Date,TemperatureHighF,TemperatureAvgF,TemperatureLowF,DewpointHighF,DewpointAvgF,DewpointLowF,HumidityHigh,HumidityAvg,HumidityLow,PressureMaxIn,PressureMinIn,WindSpeedMaxMPH,WindSpeedAvgMPH,GustSpeedMaxMPH,PrecipitationSumIn
2013-1-1,20.3,12.6,7.0,7.8,3.7,-0.2,75,67,53,30.27,30.17,18,5,18,0.00
2013-1-2,29.2,16.8,5.6,17.0,7.8,-1.7,79,68,55,30.24,30.11,21,2,21,0.00
2013-1-3,26.4,22.6,13.5,23.4,17.5,8.3,90,81,74,30.30,30.10,21,6,21,0.00
2013-1-4,33.3,21.9,10.3,21.4,15.1,5.7,82,75,58,30.29,30.16,26,9,27,0.00
2013-1-5,35.1,27.5,15.9,31.8,24.2,12.7,97,87,72,30.25,29.94,28,4,29,0.00
2013-1-6,34.1,25.4,17.3,31.5,20.0,12.8,91,80,70,30.35,29.92,29,7,29,0.00
2013-1-7,38.4,25.7,12.4,26.2,19.6,8.5,89,78,56,30.34,30.11,24,6,32,0.00
2013-1-8,41.1,31.2,21.4,30.4,26.0,19.2,92,81,63,30.17,30.02,27,3,27,0.00
2013-1-9,46.0,36.3,29.5,30.4,26.2,22.0,87,68,40,30.48,30.00,36,7,36,0.00
2013-1-10,42.5,33.5,23.6,39.1,26.5,19.2,100,77,43,30.50,29.87,20,6,20,0.40
2013-1-11,48.4,45.5,39.2,48.3,45.1,39.1,100,99,92,29.86,29.67,28,7,28,0.45
2013-1-12,50.8,37.2,25.3,46.2,32.2,21.8,94,82,71,30.01,29.69,27,7,28,0.00
2013-1-13,25.3,18.5,10.3,23.2,14.0,4.0,92,82,73,30.27,29.91,27,6,27,0.00
2013-1-14,23.1,14.5,7.9,10.5,6.7,2.8,81,71,55,30.48,30.28,12,3,16,0.00
2013-1-15,27.9,19.1,11.2,15.6,11.4,6.2,86,72,53,30.46,30.14,8,0,8,0.00
2013-1-16,32.9,25.5,15.8,27.7,17.4,7.7,86,71,55,30.14,29.86,29,5,29,0.00
2013-1-17,32.6,24.3,19.2,29.4,12.6,6.2,89,61,43,30.42,30.08,20,4,20,0.00
2013-1-18,39.1,29.7,16.4,30.3,22.4,11.8,84,74,64,30.44,29.91,34,9,39,0.08
2013-1-19,45.3,38.6,21.1,35.4,29.2,7.1,75,69,47,29.97,29.73,43,10,43,0.00
2013-1-20,20.7,13.9,9.4,6.7,1.6,-1.3,67,57,49,30.33,29.98,30,9,34,0.00
2013-1-21,11.3,6.4,1.5,2.9,-5.6,-10.9,72,57,40,30.33,30.18,26,11,28,0.00
2013-1-22,10.6,4.4,-3.3,-3.9,-7.8,-11.3,72,57,45,30.44,30.33,22,7,22,0.00
2013-1-23,18.8,13.2,8.2,13.0,3.3,-5.0,84,64,53,30.42,30.15,29,7,29,0.00
2013-1-24,18.6,11.4,1.9,5.3,-1.3,-7.8,65,56,44,30.67,30.38,22,5,22,0.00
2013-1-25,28.9,20.6,15.9,18.0,12.9,3.1,88,72,53,30.38,29.99,20,6,22,0.00
2013-1-26,26.7,18.0,7.5,13.5,7.1,1.3,77,62,44,30.42,30.22,17,1,17,0.00
2013-1-27,32.9,27.3,21.6,32.7,23.0,13.8,99,84,68,30.37,29.90,24,4,24,0.01
2013-1-28,44.1,39.8,32.9,44.1,39.5,32.7,100,99,95,29.94,29.79,24,3,24,0.50
2013-1-29,60.7,52.9,40.7,59.3,52.7,40.4,100,99,94,29.79,29.40,28,5,28,1.02
2013-1-30,41.0,30.1,17.5,41.0,29.0,11.9,100,95,79,29.67,29.26,33,8,33,0.28
2013-1-31,17.3,10.1,0.9,11.8,3.0,-6.8,83,72,67,30.23,29.67,32,14,32,0.00
2013-2-1,13.0,4.3,-3.3,9.6,-3.8,-10.9,86,69,59,30.42,30.20,28,8,28,0.00
2013-2-2,21.8,13.4,7.0,19.6,8.1,-0.1,91,79,64,30.20,30.04,25,4,25,0.00
2013-2-3,21.3,15.8,8.8,16.8,9.7,1.4,90,77,62,30.09,30.01,22,4,24,0.00
2013-2-4,24.2,18.6,8.1,20.6,14.7,-0.2,93,84,68,30.04,29.89,20,2,20,0.00
2013-2-5,28.7,20.8,7.2,26.4,15.9,-3.6,93,81,58,30.11,29.84,22,2,22,0.00
2013-2-6,35.4,25.9,11.0,29.7,20.5,7.7,90,80,70,30.24,30.10,16,2,16,0.03
2013-2-7,33.0,31.4,25.9,32.8,30.4,25.2,99,96,86,30.10,29.88,12,1,13,0.42
2013-2-8,25.8,21.8,19.4,25.1,18.8,16.0,97,88,82,30.41,30.01,0,0,0,0.00
2013-2-9,28.9,25.8,21.6,25.5,22.2,19.4,91,86,81,30.41,30.08,25,3,25,0.01
2013-2-10,43.4,36.1,26.1,43.2,34.0,23.1,100,92,67,30.08,29.48,36,9,36,0.35
2013-2-11,40.2,30.7,26.1,32.2,23.0,18.6,78,72,68,30.06,29.52,40,16,46,0.00
2013-2-12,28.6,24.8,22.2,21.2,19.0,16.4,90,78,68,30.12,29.93,24,5,24,0.00
2013-2-13,40.4,30.7,20.5,31.9,26.2,18.9,95,84,67,29.93,29.74,19,2,19,0.00
2013-2-14,37.7,34.1,30.4,31.0,27.7,22.0,91,78,58,29.99,29.64,30,6,30,0.00
2013-2-15,31.3,25.0,16.7,25.0,13.3,7.3,79,61,41,30.22,29.99,24,6,24,0.00
2013-2-16,18.9,14.4,10.6,7.3,3.4,1.1,71,61,52,30.23,30.16,21,5,21,0.00
2013-2-17,27.4,18.5,6.5,18.1,8.0,0.2,79,64,48,30.25,29.99,20,3,20,0.00
2013-2-18,48.0,35.7,24.0,44.3,30.0,17.8,98,80,68,29.99,29.45,38,9,38,0.36
2013-2-19,23.7,12.2,7.0,19.9,6.2,-0.4,85,77,68,30.25,29.61,37,14,37,0.00
2013-2-20,21.3,12.9,4.5,11.0,4.2,-2.8,79,68,60,30.41,30.25,19,6,20,0.00
2013-2-21,26.7,21.2,12.4,23.7,17.0,7.8,94,84,78,30.41,29.98,26,5,26,0.00
2013-2-22,31.7,25.9,22.4,30.1,23.8,20.5,97,92,86,29.98,29.82,25,8,25,0.01
2013-2-23,26.7,23.1,19.2,23.2,17.7,14.6,91,80,66,29.99,29.91,21,7,25,0.00
2013-2-24,38.1,24.0,14.1,21.6,16.7,10.2,86,74,50,30.16,30.00,10,1,10,0.00
2013-2-25,40.4,29.6,19.2,26.9,22.0,16.0,89,74,54,30.19,29.96,12,2,12,0.00
2013-2-26,34.2,31.9,29.6,31.1,28.1,24.8,99,87,69,29.96,29.57,30,8,30,0.00
2013-2-27,31.8,30.4,28.0,30.8,29.4,27.5,99,96,94,29.75,29.57,22,6,22,0.05
2013-2-28,34.8,31.1,25.5,30.4,26.7,18.1,97,84,69,30.10,29.75,26,6,26,0.01
2013-3-1,25.6,23.7,22.8,20.2,18.1,15.3,86,79,71,30.23,30.09,24,7,24,0.00
2013-3-2,27.6,21.4,14.0,17.2,11.9,7.4,76,67,51,30.24,30.20,20,4,20,0.00
2013-3-3,33.2,20.8,9.4,12.7,9.1,4.2,82,62,38,30.20,30.12,10,1,10,0.00
2013-3-4,30.5,24.6,15.4,23.5,16.7,8.5,79,72,59,30.15,30.00,20,4,20,0.00
2013-3-5,31.3,28.9,24.9,30.3,26.9,22.9,97,92,74,30.04,29.82,13,2,13,0.08
2013-3-6,31.3,27.6,24.9,26.0,24.0,22.0,96,86,78,30.33,30.04,20,2,20,0.01
2013-3-7,34.4,28.1,20.7,23.8,20.9,16.5,86,75,59,30.43,30.32,10,0,10,0.01
2013-3-8,35.7,26.1,13.0,26.0,20.3,9.7,92,79,66,30.49,30.30,16,2,16,0.01
2013-3-9,39.1,34.2,27.1,32.8,28.7,20.9,90,80,74,30.30,29.83,21,7,21,0.10
2013-3-10,44.1,39.8,36.5,44.1,39.4,32.2,100,98,78,29.85,29.59,20,3,20,0.86
2013-3-11,41.5,34.4,30.5,41.5,33.8,26.8,100,98,85,29.82,29.57,21,4,24,0.91
2013-3-12,33.8,28.3,24.3,28.1,21.9,-99.9,94,79,67,30.05,29.81,30,0,33,0.00
2013-3-13,31.0,25.7,20.7,18.5,14.4,9.3,79,63,41,30.35,30.05,28,8,28,0.00
2013-3-14,30.8,27.1,21.1,29.5,21.9,14.9,96,81,64,30.34,30.09,14,2,14,0.00
2013-3-15,38.2,32.5,27.4,35.1,30.8,26.2,98,94,78,30.09,29.75,13,2,14,0.05
2013-3-16,32.6,29.9,27.3,31.3,26.1,19.5,98,86,69,30.14,29.74,19,4,19,0.00
2013-3-17,33.5,28.6,22.8,23.3,19.4,13.5,77,68,61,30.22,29.99,18,5,19,0.00
2013-3-18,32.6,27.9,18.8,30.8,23.7,9.8,96,84,67,29.99,29.64,37,9,38,0.03
2013-3-19,30.1,21.3,13.8,15.5,10.5,5.7,73,63,48,30.12,29.83,37,16,37,0.00
2013-3-20,23.4,16.9,10.0,10.9,5.3,-0.3,73,60,50,30.15,30.06,31,11,32,0.00
2013-3-21,30.7,20.8,10.3,14.6,9.7,3.7,76,63,47,30.10,30.04,17,4,18,0.00
2013-3-22,38.4,27.2,16.7,18.0,14.0,10.8,80,59,39,30.09,30.03,14,1,14,0.00
2013-3-23,42.1,32.5,24.3,25.4,20.3,16.8,83,62,39,30.14,30.03,14,2,14,0.00
2013-3-24,34.9,31.1,28.9,27.3,24.6,22.3,92,77,63,30.05,29.70,26,7,26,0.00
2013-3-25,34.4,30.6,26.5,25.8,23.3,20.2,82,74,66,30.10,29.76,28,8,28,0.00
2013-3-26,41.0,34.7,31.3,27.3,24.2,18.8,79,66,45,30.26,30.10,19,2,19,0.00
2013-3-27,42.0,35.3,30.2,27.4,23.0,18.5,80,62,42,30.33,30.26,12,1,12,0.00
2013-3-28,48.7,38.5,28.0,25.7,22.1,18.4,77,53,33,30.36,30.28,12,1,13,0.00
2013-3-29,55.4,42.5,31.8,28.3,24.1,21.1,68,50,30,30.32,30.22,10,0,13,0.00
2013-3-30,54.6,42.3,31.3,41.1,31.6,22.0,82,66,46,30.24,29.84,14,3,29,0.00
2013-3-31,55.4,43.3,33.2,42.5,34.9,23.8,98,74,40,29.90,29.72,29,8,31,0.00
2013-4-1,38.4,32.1,27.0,23.8,16.2,10.9,69,53,36,30.21,29.91,24,6,25,0.00
2013-4-2,41.5,32.4,23.0,19.4,14.9,8.1,80,51,26,30.32,30.21,22,3,25,0.00
2013-4-3,46.2,35.6,23.9,19.6,14.5,8.5,71,44,25,30.45,30.32,12,1,14,0.00
2013-4-4,56.5,43.1,25.5,35.7,24.8,16.2,73,51,30,30.31,29.98,20,3,21,0.00
2013-4-5,50.9,41.5,32.7,34.3,24.8,14.4,79,53,33,30.21,30.01,19,3,20,0.00
2013-4-6,64.7,48.7,34.2,48.9,32.7,16.6,90,55,33,30.13,29.60,37,9,39,0.26
2013-4-7,59.0,47.7,37.8,48.8,38.6,32.2,90,72,50,29.94,29.61,24,5,26,0.00
2013-4-8,64.9,51.6,37.8,53.5,45.6,32.2,99,81,60,29.95,29.53,39,8,49,0.41
2013-4-9,57.6,44.6,39.2,51.6,42.1,37.4,96,91,77,29.97,29.82,20,6,20,0.01
2013-4-10,39.7,38.3,35.1,39.2,37.5,34.1,98,97,95,30.03,29.83,44,8,44,0.80
2013-4-11,46.6,40.8,36.7,46.6,40.3,35.8,100,98,95,29.85,29.57,24,7,29,0.14
2013-4-12,41.8,37.3,34.5,37.9,32.6,29.1,95,83,73,29.86,29.58,30,8,30,0.01
2013-4-13,43.0,37.1,31.8,32.1,27.6,21.7,88,69,52,29.99,29.85,29,8,29,0.00
2013-4-14,70.2,50.5,35.7,50.4,38.3,28.7,79,64,44,30.00,29.61,32,9,33,0.00
2013-4-15,62.6,53.3,41.0,53.5,47.6,37.7,98,82,54,29.99,29.62,33,6,39,0.37
2013-4-16,55.4,44.8,35.8,39.3,34.8,31.4,93,70,44,30.26,29.95,18,2,18,0.00
2013-4-17,46.5,42.1,39.7,46.3,37.9,30.9,100,86,65,30.27,29.80,26,7,26,1.69
2013-4-18,60.7,49.8,37.2,59.4,48.6,31.0,100,96,78,29.81,29.41,36,8,36,1.53
2013-4-19,37.7,35.3,32.9,30.9,27.9,25.0,88,74,61,29.94,29.49,41,15,41,0.00
2013-4-20,45.1,36.4,28.3,27.1,21.8,17.2,84,57,36,30.41,29.94,20,2,20,0.00
2013-4-21,50.8,40.7,31.0,34.7,27.3,20.8,74,59,44,30.50,30.29,31,8,31,0.00
2013-4-22,63.4,50.6,35.7,40.6,35.7,30.6,84,59,34,30.29,30.02,26,4,26,0.00
2013-4-23,52.7,44.4,35.2,48.4,41.2,33.4,97,89,65,30.02,29.91,25,3,25,0.65
2013-4-24,49.4,41.3,33.5,34.2,28.6,23.7,94,63,38,30.11,29.96,25,4,25,0.08
2013-4-25,50.3,42.6,38.0,36.3,30.0,22.8,90,63,36,30.31,30.05,28,5,28,0.02
2013-4-26,64.4,50.4,35.8,45.4,37.6,26.5,80,63,44,30.32,30.21,38,6,38,0.00
2013-4-27,65.2,54.6,41.4,47.5,42.8,35.7,96,68,34,30.26,29.98,22,2,22,0.00
2013-4-28,67.5,58.0,51.2,51.7,48.6,41.8,90,72,54,29.97,29.80,8,0,8,0.00
2013-4-29,71.7,61.2,49.9,56.2,52.1,47.5,93,74,50,29.88,29.73,27,6,27,0.00
2013-4-30,83.6,69.3,56.9,59.5,54.8,47.4,92,64,29,29.89,29.73,33,9,33,0.00
2013-5-1,81.7,71.0,58.1,57.8,52.7,46.0,89,57,30,30.08,29.90,22,4,22,0.00
2013-5-2,65.7,52.1,43.8,53.3,44.7,37.4,94,77,62,30.21,30.07,19,4,19,0.33
2013-5-3,52.1,45.0,38.5,50.6,43.9,37.4,98,96,93,30.14,29.93,24,5,24,0.12
2013-5-4,71.6,59.0,49.6,55.2,50.2,46.3,96,75,43,30.02,29.92,21,3,21,0.00
2013-5-5,73.5,61.2,49.6,52.8,45.9,40.8,94,61,32,30.02,29.94,17,3,19,0.76
2013-5-6,74.3,62.1,52.1,44.6,39.7,31.7,71,47,23,30.03,29.95,17,2,17,0.00
2013-5-7,79.0,65.0,49.1,47.3,40.7,35.2,71,44,23,30.03,29.94,13,1,13,0.00
2013-5-8,80.7,67.2,50.8,48.1,43.9,38.2,81,47,23,30.01,29.92,8,0,8,0.00
2013-5-9,71.4,60.8,48.5,59.5,52.4,43.5,98,75,53,29.93,29.81,27,2,27,0.18
2013-5-10,51.4,47.0,43.2,48.0,44.5,42.2,99,91,78,29.98,29.76,18,4,18,0.05
2013-5-11,58.1,48.1,41.4,48.9,35.0,-99.9,98,67,28,30.05,29.83,29,-5,30,0.01
2013-5-12,55.1,45.7,35.2,29.7,25.8,20.5,72,48,27,30.12,30.05,22,4,26,0.00
2013-5-13,65.3,52.9,34.9,38.1,27.7,21.0,78,42,19,30.16,29.96,14,2,19,0.00
2013-5-14,93.4,71.9,51.1,58.4,46.5,35.7,65,44,18,29.96,29.60,25,5,25,0.00
2013-5-15,85.6,76.2,66.7,57.7,45.6,34.6,53,35,17,29.81,29.59,26,4,27,0.00
2013-5-16,81.3,69.7,56.2,48.4,43.4,36.5,68,41,23,29.93,29.80,21,1,21,0.00
2013-5-17,78.3,64.9,58.2,57.1,47.6,38.0,66,54,43,30.00,29.92,18,1,18,0.00
2013-5-18,78.5,68.0,54.2,62.6,56.5,46.6,98,68,49,30.02,29.90,20,2,20,0.00
2013-5-19,85.6,73.3,60.7,64.2,60.2,57.3,93,67,41,29.92,29.71,31,4,31,0.02
2013-5-20,85.0,75.4,63.9,68.4,58.7,49.7,95,60,30,29.75,29.66,37,5,37,0.25
2013-5-21,79.2,70.2,61.5,64.4,59.5,53.8,96,71,43,29.68,29.62,31,5,31,0.01
2013-5-22,71.7,65.0,60.7,63.5,58.6,52.1,98,81,53,29.73,29.60,22,2,22,0.45
2013-5-23,60.7,52.0,39.7,57.1,47.3,33.9,98,84,61,30.29,29.73,22,3,22,0.17
2013-5-24,63.2,49.6,36.7,41.7,35.3,31.7,83,60,36,30.43,30.29,14,1,14,0.00
2013-5-25,55.4,50.2,44.7,44.4,37.3,29.0,78,62,44,30.38,30.28,14,1,14,0.01
2013-5-26,61.5,53.3,42.7,52.9,43.9,34.4,93,71,50,30.28,30.09,19,2,19,0.08
2013-5-27,60.5,57.0,52.1,58.2,55.5,49.7,100,95,86,30.10,29.83,13,2,14,0.20
2013-5-28,75.7,67.2,56.1,69.7,63.9,55.5,100,90,71,29.84,29.66,30,3,30,0.05
2013-5-29,81.9,71.2,62.1,69.1,64.2,59.3,93,80,57,29.92,29.73,18,1,22,0.03
2013-5-30,82.5,71.9,61.6,68.9,64.8,58.6,99,79,58,29.88,29.72,38,6,38,0.72
2013-5-31,72.8,67.0,61.0,67.1,63.5,60.7,100,89,69,29.82,29.66,27,4,27,0.27
2013-6-1,74.2,66.4,60.5,67.6,62.5,56.4,98,88,69,29.71,29.63,24,4,37,0.24
2013-6-2,62.8,56.1,48.1,58.6,49.9,43.2,96,80,63,30.03,29.70,18,3,18,0.00
2013-6-3,70.5,56.9,44.0,51.8,45.0,41.0,100,69,36,30.10,30.01,10,0,10,0.01
2013-6-4,70.9,60.5,49.4,48.7,44.2,38.6,84,57,39,30.14,30.03,24,2,24,0.00
2013-6-5,66.2,58.2,53.0,58.1,50.5,44.0,91,76,58,30.09,29.92,17,1,17,0.17
2013-6-6,68.0,57.7,52.5,58.4,52.1,47.0,96,83,61,29.93,29.87,13,1,13,0.33
2013-6-7,71.4,60.7,52.8,55.1,46.6,41.0,79,62,37,29.94,29.89,16,1,16,0.00
2013-6-8,77.7,63.4,47.8,49.8,42.3,34.3,88,50,27,29.97,29.90,10,0,10,0.00
2013-6-9,78.7,67.9,56.2,62.8,53.7,42.7,93,62,43,29.97,29.77,26,4,26,0.11
2013-6-10,80.7,70.5,60.5,62.9,60.9,58.4,98,74,50,29.83,29.73,14,1,14,0.02
2013-6-11,82.9,72.5,62.0,70.3,62.3,57.6,94,72,45,29.89,29.76,7,0,12,0.29
2013-6-12,90.1,72.4,63.9,73.3,65.7,62.3,98,81,55,29.88,29.58,24,2,32,0.40
2013-6-13,80.0,69.1,59.1,62.7,56.5,49.9,97,67,37,30.02,29.62,21,3,21,0.00
2013-6-14,76.8,65.2,53.1,57.7,52.7,49.2,88,66,43,30.11,29.97,9,1,12,0.00
2013-6-15,80.5,68.5,58.5,68.8,61.0,50.0,94,78,63,30.02,29.81,33,2,33,0.11
2013-6-16,84.6,75.2,66.3,66.2,60.3,50.8,89,63,34,29.89,29.83,26,2,26,0.00
2013-6-17,88.2,75.2,60.2,66.3,54.4,46.6,87,53,26,29.91,29.81,20,2,20,0.08
2013-6-18,62.3,58.2,55.9,55.2,50.9,44.7,90,77,62,30.05,29.88,11,0,11,0.00
2013-6-19,79.6,65.2,51.2,57.9,49.8,43.9,85,59,39,30.11,30.03,17,0,17,0.00
2013-6-20,86.1,73.1,57.2,63.4,54.7,42.7,71,54,36,30.11,30.00,13,1,13,0.00
2013-6-21,79.2,70.2,66.2,67.3,64.3,60.5,99,82,64,30.14,29.85,32,2,32,0.71
2013-6-22,78.5,70.9,64.9,73.4,68.0,62.5,100,91,69,30.07,29.91,27,2,27,2.21
2013-6-23,83.8,72.2,64.5,72.8,66.7,63.2,97,84,63,30.01,29.88,25,2,25,0.05
2013-6-24,82.3,70.1,65.5,70.4,66.4,62.8,99,89,61,30.04,29.85,43,2,43,0.36
2013-6-25,82.9,73.0,65.2,74.8,68.8,63.8,98,87,71,29.93,29.77,25,1,26,0.06
2013-6-26,80.5,72.0,66.3,71.1,67.7,63.3,97,87,67,29.79,29.68,28,3,28,0.12
2013-6-27,88.4,77.4,67.5,72.6,66.5,57.0,97,72,39,29.76,29.66,30,4,30,0.00
2013-6-28,80.9,71.4,64.5,67.6,60.7,56.6,94,71,46,29.69,29.59,30,3,30,0.15
2013-6-29,68.7,65.2,61.0,64.4,60.9,55.1,97,86,64,29.76,29.57,14,0,14,0.36
2013-6-30,78.8,67.4,58.5,61.7,53.3,40.1,88,63,37,29.97,29.76,22,2,22,0.00
2013-7-1,77.7,67.4,56.2,53.8,49.2,44.5,77,54,34,30.05,29.95,24,1,24,0.00
2013-7-2,76.6,64.5,56.5,55.2,51.8,45.2,85,65,39,30.06,30.02,13,0,18,0.00
2013-7-3,67.3,62.6,58.2,63.7,59.1,53.6,97,89,83,30.04,30.00,8,0,8,0.18
2013-7-4,81.5,68.8,55.4,65.6,61.2,54.8,100,79,46,30.07,29.99,13,1,13,0.01
2013-7-5,81.5,71.9,60.5,66.8,61.9,54.5,95,73,41,30.05,29.97,17,1,17,0.00
2013-7-6,83.2,72.7,61.5,67.9,63.3,57.7,97,75,43,30.02,29.94,12,0,12,0.00
2013-7-7,87.1,76.5,67.2,71.0,67.6,60.6,96,76,44,29.97,29.90,18,1,18,0.00
2013-7-8,86.7,77.6,69.2,75.0,71.1,67.8,96,81,65,29.98,29.88,17,2,20,0.86
2013-7-9,83.2,78.3,71.2,76.6,73.2,69.2,95,85,71,29.95,29.82,29,2,29,0.03
2013-7-10,84.0,77.2,68.2,75.2,65.3,55.9,95,69,44,29.97,29.80,20,2,20,0.00
2013-7-11,82.9,72.3,62.3,59.7,56.2,50.9,83,59,36,30.08,29.97,13,0,13,0.00
2013-7-12,82.3,71.2,56.5,56.2,50.1,37.3,91,52,21,30.12,30.04,2,0,8,0.00
2013-7-13,82.9,71.9,59.0,64.1,58.5,54.0,91,65,40,30.13,30.06,14,0,14,0.00
2013-7-14,87.3,76.7,65.8,69.5,65.8,60.2,92,71,50,30.16,30.10,15,0,15,0.00
2013-7-15,89.9,78.9,69.7,74.9,70.8,66.4,92,78,51,30.22,30.16,11,0,21,0.00
2013-7-16,89.2,81.0,71.9,74.7,72.4,70.4,96,77,57,30.25,30.19,10,1,13,0.00
2013-7-17,92.3,83.9,75.9,73.6,71.3,68.0,85,67,47,30.26,30.12,16,0,16,0.00
2013-7-18,91.4,83.8,75.9,73.4,71.7,68.5,89,68,49,30.14,29.90,20,2,20,0.00
2013-7-19,92.3,83.8,74.0,72.8,69.3,63.4,86,63,43,29.90,29.71,31,5,31,0.00
2013-7-20,89.0,77.1,67.0,69.5,63.2,56.8,88,66,37,29.91,29.77,11,0,12,0.01
2013-7-21,84.2,72.6,63.2,67.4,64.1,60.5,95,77,51,29.92,29.81,12,1,16,0.00
2013-7-22,84.6,74.7,64.9,70.3,66.0,60.8,97,76,50,29.85,29.70,33,1,33,0.02
2013-7-23,78.3,69.6,59.4,64.8,59.2,52.3,92,72,43,29.95,29.67,20,2,20,0.07
2013-7-24,75.6,64.8,54.6,55.6,53.1,49.6,93,69,42,30.04,29.95,7,0,11,0.00
2013-7-25,78.3,66.9,53.1,59.1,55.0,50.7,94,68,46,30.08,30.00,13,1,13,0.00
2013-7-26,71.6,65.3,59.9,66.5,61.7,56.2,98,88,70,29.99,29.86,22,1,22,0.32
2013-7-27,63.2,58.3,52.8,56.2,49.4,44.5,95,73,53,29.92,29.86,22,3,22,0.00
2013-7-28,68.3,59.5,52.4,50.7,48.5,45.6,88,68,46,30.01,29.86,22,4,22,0.00
2013-7-29,78.1,65.1,53.3,59.3,53.9,49.3,90,69,46,30.14,30.01,18,1,18,0.00
2013-7-30,67.2,62.2,56.2,64.8,59.6,55.0,100,91,73,30.14,30.05,16,1,16,0.15
2013-7-31,77.4,67.7,62.1,66.4,63.6,60.6,100,88,63,30.04,29.92,11,1,11,0.01
2013-8-1,79.8,69.9,61.3,61.3,56.4,50.7,93,66,37,29.97,29.91,25,2,25,0.00
2013-8-2,84.0,72.6,61.3,67.2,61.6,56.2,93,70,52,29.91,29.82,20,2,20,0.03
2013-8-3,80.3,71.6,60.4,59.5,53.6,44.3,81,56,30,30.08,29.91,17,1,17,0.00
2013-8-4,79.6,68.3,57.6,61.3,54.8,48.8,86,64,35,30.17,30.08,8,0,12,0.00
2013-8-5,70.0,64.0,56.4,63.8,58.7,53.5,95,83,64,30.09,29.85,24,1,25,0.07
2013-8-6,83.0,71.7,64.7,73.9,68.2,62.8,100,90,61,29.87,29.78,11,1,12,0.66
2013-8-7,88.6,75.7,65.8,73.2,66.1,-99.9,100,77,43,29.92,29.75,19,-8,19,0.00
2013-8-8,80.9,70.1,62.1,64.9,59.9,53.4,97,73,46,29.99,29.92,8,0,11,0.00
2013-8-9,80.7,70.7,58.7,65.6,59.2,52.5,85,68,52,30.01,29.95,15,1,15,0.00
2013-8-10,81.5,70.9,60.1,62.7,57.3,52.6,88,65,40,30.10,30.01,13,1,13,0.00
2013-8-11,80.0,68.3,55.6,67.8,59.7,53.2,94,76,50,30.10,30.00,18,1,18,0.00
2013-8-12,81.1,72.9,65.0,71.8,64.6,59.7,94,76,61,30.00,29.83,19,2,19,0.23
2013-8-13,72.4,63.7,54.8,59.8,50.4,43.0,91,65,38,30.13,29.91,17,1,17,0.00
2013-8-14,75.0,63.2,51.5,54.2,50.4,47.1,92,66,39,30.20,30.11,8,0,14,0.00
2013-8-15,75.0,64.0,52.2,56.2,52.2,49.2,91,68,46,30.15,30.08,17,1,17,0.00
2013-8-16,82.9,70.3,56.1,57.6,53.1,49.2,84,57,33,30.15,30.10,13,0,13,0.00
2013-8-17,81.7,68.1,55.1,62.2,53.7,49.9,92,63,36,30.21,30.13,11,0,11,0.00
2013-8-18,81.1,68.2,55.6,63.2,55.8,52.1,92,67,40,30.18,30.07,11,0,11,0.00
2013-8-19,81.7,70.9,57.0,65.1,60.0,54.3,93,71,47,30.09,30.00,16,2,16,0.00
2013-8-20,83.0,72.7,60.4,66.1,63.1,59.2,97,74,51,30.08,30.00,22,2,22,0.00
2013-8-21,86.7,76.0,65.0,69.0,65.0,62.6,94,71,47,30.04,29.93,21,3,22,0.02
2013-8-22,76.6,69.5,64.7,69.0,66.7,63.4,100,91,76,30.14,29.95,28,1,28,1.27
2013-8-23,81.9,70.6,60.7,64.1,56.8,48.7,97,67,33,30.14,30.08,10,0,12,0.00
2013-8-24,82.3,70.7,58.7,67.1,61.7,52.4,97,75,54,30.22,30.14,12,1,14,0.00
2013-8-25,85.9,72.9,61.3,70.4,63.8,57.5,89,74,57,30.21,30.10,18,2,19,0.00
2013-8-26,88.6,77.9,65.5,74.5,68.5,61.5,89,74,57,30.11,29.95,20,2,22,0.00
2013-8-27,89.9,80.3,74.3,73.9,70.7,66.1,88,74,54,29.96,29.80,20,3,26,0.00
2013-8-28,89.4,79.1,68.8,74.1,68.9,64.9,89,72,54,30.00,29.79,22,1,27,0.00
2013-8-29,85.9,74.8,67.3,72.2,67.9,65.3,100,82,54,30.05,29.94,11,0,13,0.00
2013-8-30,93.2,76.4,66.3,75.5,69.8,63.3,100,82,50,29.95,29.72,33,2,35,1.89
2013-8-31,80.9,70.9,66.2,74.3,68.2,64.0,100,92,74,29.83,29.76,26,0,27,0.68
2013-9-1,83.6,71.8,61.6,73.9,66.9,60.7,99,86,62,29.79,29.70,12,1,13,0.01
2013-9-2,78.3,68.1,59.4,66.8,59.3,53.6,93,75,51,29.97,29.79,14,2,16,0.00
2013-9-3,75.6,63.9,52.8,56.8,53.8,50.8,94,72,46,30.07,29.97,11,0,13,0.00
2013-9-4,82.3,67.8,54.2,63.1,56.1,-99.9,94,70,44,30.11,30.01,12,-7,13,0.00
2013-9-5,76.3,67.4,57.8,65.3,58.0,49.5,97,74,52,30.21,30.07,10,0,12,0.00
2013-9-6,82.3,69.6,56.5,68.4,59.8,50.3,86,72,56,30.18,29.97,12,1,15,0.00
2013-9-7,85.4,73.1,61.2,69.3,63.9,58.8,95,75,43,29.98,29.85,17,1,17,0.00
2013-9-8,77.9,71.4,66.8,68.7,66.7,64.6,95,86,71,29.98,29.89,8,0,13,0.00
2013-9-9,88.4,77.2,65.8,76.0,70.6,65.1,100,81,63,29.92,29.78,14,1,17,0.00
2013-9-10,92.7,83.0,75.7,69.1,63.6,58.5,70,53,33,29.95,29.83,25,4,27,0.00
2013-9-11,85.4,77.9,70.4,69.8,66.3,63.4,86,68,54,30.01,29.92,17,1,19,0.00
2013-9-12,78.3,69.3,59.0,66.0,56.3,47.8,94,67,36,30.06,29.94,24,3,25,0.00
2013-9-13,69.8,57.8,47.8,54.2,43.8,38.2,88,63,34,30.17,30.06,13,2,17,0.00
2013-9-14,54.2,48.0,45.6,49.9,44.1,42.7,93,87,82,30.17,30.11,2,0,2,0.00
2013-9-15,57.5,55.3,52.1,56.9,53.6,44.0,98,94,71,30.15,29.98,11,0,11,0.88
2013-9-16,68.0,56.6,47.8,55.1,48.5,44.5,97,76,50,30.34,30.16,14,1,18,0.00
2013-9-17,67.8,56.3,45.9,55.2,49.8,44.0,95,80,57,30.31,30.08,18,2,19,0.00
2013-9-18,75.2,64.8,57.2,68.9,59.6,52.0,97,84,69,30.08,29.89,14,1,17,0.07
2013-9-19,87.7,74.1,66.2,72.6,67.7,61.8,100,83,54,29.90,29.72,22,2,24,0.13
2013-9-20,72.2,65.4,54.9,66.9,59.2,50.0,99,82,57,29.83,29.72,22,3,25,0.06
2013-9-21,67.7,57.0,49.0,52.0,47.9,44.1,96,74,45,29.94,29.81,19,3,19,0.00
2013-9-22,71.2,52.0,44.7,49.5,45.2,42.2,92,80,41,30.04,29.94,1,0,8,0.00
2013-9-23,70.9,55.9,44.4,52.2,47.4,43.0,95,75,47,30.10,30.00,14,1,17,0.00
2013-9-24,71.7,58.1,46.0,51.7,48.5,44.1,94,73,44,30.04,29.91,16,1,20,0.00
2013-9-25,75.6,60.0,49.7,57.7,50.7,48.6,98,75,41,29.96,29.90,11,0,12,0.00
2013-9-26,77.4,61.1,49.4,56.0,49.8,42.0,98,72,31,30.05,29.94,12,1,14,0.00
2013-9-27,78.7,68.2,62.1,51.7,49.6,45.7,62,52,36,30.04,30.01,17,2,17,0.00
2013-9-28,80.5,66.2,52.2,65.7,54.4,45.1,96,68,43,30.05,29.85,35,3,35,0.12
2013-9-29,71.6,58.5,49.4,58.4,48.0,40.9,98,72,35,30.05,29.92,18,1,18,0.07
2013-9-30,73.3,58.0,43.8,53.3,45.9,39.0,97,69,30,30.00,29.84,16,1,16,0.00
2013-10-1,78.1,66.0,55.5,65.5,60.3,52.0,100,84,57,29.94,29.85,18,3,24,0.00
2013-10-2,78.8,67.3,57.5,63.1,51.4,39.5,97,62,28,30.06,29.94,16,0,16,0.00
2013-10-3,75.4,67.1,59.6,69.4,64.5,49.7,100,92,70,29.95,29.81,14,1,14,0.18
2013-10-4,72.8,67.6,62.9,69.6,65.3,60.1,99,93,80,29.96,29.85,17,1,17,0.13
2013-10-5,76.5,67.9,58.7,70.5,65.8,55.5,100,93,76,29.91,29.74,20,1,20,0.08
2013-10-6,58.8,50.6,42.0,55.2,42.3,36.2,93,74,48,29.78,29.69,21,2,21,0.06
2013-10-7,70.2,54.4,41.8,48.3,43.8,39.9,98,71,37,30.07,29.77,21,4,21,0.01
2013-10-8,74.5,58.8,43.2,51.0,45.5,41.6,96,66,33,30.16,30.06,17,1,17,0.00
2013-10-9,71.0,57.5,46.2,49.5,44.5,36.9,95,66,30,30.23,30.11,16,1,16,0.00
2013-10-10,73.3,59.5,45.7,53.3,49.9,44.9,97,74,44,30.15,30.02,13,1,13,0.00
2013-10-11,74.7,62.4,53.0,58.3,52.9,49.9,91,73,49,30.05,29.91,25,3,25,0.00
2013-10-12,69.0,59.6,50.0,62.7,51.6,40.5,97,77,39,30.16,29.91,19,2,19,0.30
2013-10-13,65.3,52.9,42.8,42.4,37.3,30.2,80,58,30,30.38,30.17,17,1,17,0.00
2013-10-14,63.1,50.4,39.1,46.6,41.6,36.0,92,74,47,30.39,30.10,19,1,19,0.00
2013-10-15,65.0,54.9,46.9,62.2,49.3,40.7,99,82,72,30.09,29.74,19,3,19,0.11
2013-10-16,50.8,48.5,45.7,46.5,43.9,40.5,95,84,78,29.94,29.82,21,5,21,0.00
2013-10-17,54.0,47.0,39.2,46.7,43.6,36.8,98,88,60,29.93,29.83,20,2,20,0.29
2013-10-18,49.1,43.4,37.8,41.8,37.4,35.3,96,80,65,29.97,29.83,26,4,26,0.00
2013-10-19,52.0,44.0,38.1,38.4,35.5,29.7,86,73,44,29.94,29.78,26,4,26,0.00
2013-10-20,58.2,47.7,36.7,45.5,39.3,33.8,93,74,55,29.88,29.72,20,1,20,0.01
2013-10-21,53.9,42.6,34.7,45.0,30.6,22.6,80,63,44,29.99,29.78,28,6,28,0.00
2013-10-22,38.4,34.4,29.6,36.3,29.4,23.9,94,82,59,30.00,29.93,14,2,14,0.08
2013-10-23,41.7,35.6,29.0,31.8,28.1,25.8,94,75,56,30.04,29.94,22,4,22,0.01
2013-10-24,41.0,36.3,30.4,29.6,25.2,18.6,81,65,43,30.31,30.02,20,5,20,0.00
2013-10-25,50.2,38.6,27.1,28.5,25.0,22.1,83,60,38,30.41,30.03,26,6,26,0.00
2013-10-26,53.3,44.6,35.8,36.1,28.9,25.2,73,54,38,30.08,29.85,29,8,29,0.00
2013-10-27,53.3,41.6,30.7,30.9,28.3,25.6,83,61,38,30.08,29.96,19,3,19,0.00
2013-10-28,55.4,42.2,32.3,42.3,34.9,27.8,91,76,57,30.35,30.05,18,2,18,0.00
2013-10-29,55.9,45.0,35.9,42.2,36.7,31.8,96,75,46,30.35,30.13,16,2,16,0.00
2013-10-30,57.8,51.5,47.7,57.6,48.2,-99.9,100,96,79,30.13,29.74,16,3,16,0.38
2013-10-31,60.9,56.4,43.7,60.9,52.8,-99.9,100,97,82,29.74,29.25,28,5,28,0.66
2013-11-1,46.2,43.5,40.4,44.6,36.0,20.2,100,77,40,29.75,29.40,21,6,32,0.04
2013-11-2,45.6,40.1,34.4,41.0,26.8,-12.3,100,70,9,30.15,29.75,16,1,16,0.00
2013-11-3,49.4,39.9,27.4,49.4,2.9,-99.9,100,56,1,30.30,30.15,20,3,20,0.01
2013-11-4,55.8,47.8,40.5,31.2,-10.0,-99.9,58,27,1,30.24,30.07,31,6,31,0.00
2013-11-5,51.5,49.8,47.2,51.5,45.2,31.5,100,86,50,30.24,29.92,27,2,27,0.07
2013-11-6,55.4,44.5,31.6,55.4,37.8,1.3,100,81,26,30.19,29.75,33,7,33,0.74
2013-11-7,39.8,33.3,28.2,26.5,11.1,-99.9,78,50,1,30.25,30.19,22,5,22,0.00
2013-11-8,46.5,37.2,27.4,46.5,-7.1,-99.9,100,43,1,30.33,29.91,29,3,29,0.00
2013-11-9,55.6,47.4,37.8,55.6,-32.5,-99.9,100,16,1,30.13,29.84,34,12,34,0.00
2013-11-10,49.0,39.6,30.8,49.0,-13.9,-99.9,100,34,1,30.35,30.13,22,4,22,0.00
2013-11-11,44.9,35.4,21.3,33.3,-21.5,-99.9,100,33,1,30.54,30.08,24,6,24,0.05
2013-11-12,31.4,23.2,17.3,5.7,-30.7,-99.9,57,24,1,30.72,30.54,19,6,19,0.00
2013-11-13,38.7,27.9,18.1,38.7,-10.7,-99.9,100,42,1,30.61,30.17,29,8,29,0.00
2013-11-14,47.8,36.2,26.4,47.8,-11.4,-99.9,100,40,1,30.17,29.93,27,7,27,0.00
2013-11-15,48.7,38.7,31.4,48.7,3.1,-99.9,100,49,1,29.98,29.91,20,3,20,0.00
2013-11-16,57.6,48.6,34.4,57.6,48.4,30.2,100,99,85,29.93,29.55,38,8,38,0.27
2013-11-17,65.3,52.4,39.7,64.4,47.4,17.0,100,85,34,29.74,29.16,46,12,46,0.65
2013-11-18,41.5,35.6,27.9,40.5,-13.6,-99.9,100,34,1,30.26,29.74,28,10,34,0.00
2013-11-19,38.7,31.1,24.2,26.0,-6.4,-99.9,79,42,1,30.38,30.26,16,3,16,0.00
2013-11-20,39.2,34.7,29.2,37.5,16.9,-26.3,100,59,6,30.28,30.09,25,6,25,0.10
2013-11-21,46.3,41.9,37.5,42.1,38.2,32.0,100,88,58,30.21,30.10,12,0,12,0.00
2013-11-22,40.1,33.1,24.0,39.0,14.7,-37.5,100,56,3,30.48,30.20,25,6,25,0.01
2013-11-23,24.0,19.3,11.7,23.3,-27.1,-99.9,100,40,1,30.73,30.45,25,8,27,0.00
2013-11-24,24.7,16.3,8.2,24.7,-25.3,-99.9,100,38,1,30.75,30.39,20,5,20,0.00
2013-11-25,30.2,26.0,18.4,27.0,-15.3,-99.9,100,41,1,30.38,30.08,26,8,26,0.00
2013-11-26,32.0,26.5,13.8,22.7,-13.9,-99.9,78,39,1,30.21,30.04,24,7,27,0.00
2013-11-27,39.2,19.7,9.1,39.0,-38.0,-99.9,100,26,1,30.29,30.19,20,6,20,0.00
2013-11-28,38.2,25.8,18.9,38.2,-33.8,-99.9,100,31,1,30.51,30.19,20,4,20,0.00
2013-11-29,32.0,23.9,12.2,31.8,-11.8,-99.9,100,44,1,30.63,30.39,16,2,16,0.00
2013-11-30,48.0,34.8,23.4,47.8,-8.3,-99.9,100,34,1,30.39,30.06,24,2,24,0.00
2013-12-1,44.6,34.6,29.3,44.4,-6.1,-99.9,100,46,1,30.12,29.98,11,0,11,0.00
2013-12-2,40.4,35.2,31.0,34.7,-2.3,-99.9,100,55,1,29.98,29.73,17,3,17,0.02
2013-12-3,45.9,40.3,34.8,45.9,40.3,34.7,100,100,100,29.74,29.65,19,4,19,0.01
2013-12-4,52.2,45.9,32.7,52.2,45.9,30.6,100,100,92,29.72,29.49,34,6,34,0.02
2013-12-5,32.4,22.7,17.5,30.6,-15.0,-99.9,94,31,1,30.30,29.71,26,12,31,0.01
2013-12-6,17.5,13.9,9.3,-13.9,-40.1,-99.9,27,13,1,30.58,30.27,17,5,17,0.00
2013-12-7,18.6,10.8,4.3,18.6,-38.7,-99.9,100,26,1,30.73,30.58,12,3,14,0.00
2013-12-8,22.2,17.8,10.8,21.8,-3.8,-60.8,100,56,2,30.61,29.97,12,3,18,0.00
2013-12-9,21.6,11.3,-3.1,21.6,-9.5,-59.4,100,49,3,30.28,29.97,30,9,30,0.00
2013-12-10,19.1,9.0,-10.2,-9.2,-34.9,-99.9,40,16,1,30.33,30.05,33,9,33,0.00
2013-12-11,18.8,9.5,-6.3,13.5,-27.3,-99.9,100,37,1,30.61,30.29,22,5,22,0.00
2013-12-12,16.2,7.5,-6.3,-7.7,-38.2,-99.9,42,15,1,30.58,30.24,28,5,28,0.00
2013-12-13,29.2,21.3,10.0,18.0,-3.4,-50.5,71,43,2,30.24,30.11,11,1,11,0.00
2013-12-14,28.2,25.6,17.7,41.5,23.3,11.7,100,90,50,30.11,29.53,19,4,19,0.00
2013-12-15,18.6,11.3,8.8,12.9,-18.0,-54.9,79,30,3,30.16,29.96,28,8,28,0.00
2013-12-16,19.2,10.8,5.2,50.0,-15.6,-64.8,86,26,1,30.18,30.01,16,2,16,0.00
2013-12-17,32.4,23.0,15.1,23.7,2.4,-99.9,100,67,1,30.14,29.97,27,7,27,0.00
2013-12-18,29.7,22.1,13.8,24.8,15.9,9.5,86,77,63,30.18,29.89,19,4,19,0.01
2013-12-19,37.0,30.5,20.9,32.6,27.9,19.2,95,90,79,29.99,29.84,14,4,14,0.08
2013-12-20,34.1,32.0,26.7,33.0,30.7,25.6,96,95,93,29.87,29.78,15,4,15,0.13
2013-12-21,33.6,28.8,26.2,32.4,27.8,25.2,98,96,93,29.92,29.61,20,3,20,0.03
2013-12-22,33.2,28.1,24.4,31.8,26.2,21.9,96,92,88,30.17,29.64,13,2,14,0.00
2013-12-23,24.3,7.5,-4.5,22.3,4.0,-8.3,92,85,79,30.53,30.17,13,2,13,0.00
2013-12-24,17.0,2.4,-7.3,13.8,-1.5,-11.1,88,83,77,30.67,30.42,16,3,16,0.00
2013-12-25,25.4,22.5,17.0,23.7,19.9,13.5,93,90,83,30.42,30.15,15,4,15,0.00
2013-12-26,33.2,23.9,12.6,30.3,20.4,9.1,91,86,82,30.34,30.16,13,2,13,0.00
2013-12-27,39.2,29.4,13.7,32.4,26.1,11.7,96,87,75,30.33,30.12,15,3,15,0.10
2013-12-28,40.9,36.4,25.0,35.4,32.0,23.2,94,84,78,30.13,29.83,13,3,13,0.06
2013-12-29,37.0,25.4,7.5,31.6,21.2,1.1,92,84,74,30.26,29.80,27,4,27,0.00
2013-12-30,7.1,2.8,-3.2,2.4,-2.8,-9.0,85,77,70,30.40,30.26,11,1,11,0.00
2013-12-31,10.3,5.8,-1.2,7.0,2.3,-4.4,88,85,79,30.44,30.28,11,1,11,0.00
2014-1-1,19.8,13.7,8.8,17.4,11.0,5.5,91,89,86,30.37,30.25,18,6,18,0.00
2014-1-2,13.1,9.2,-1.3,9.0,4.6,-4.7,88,81,74,30.50,30.22,17,5,17,0.00